Location: Ravensburg
(47.7866°N, 9.6124°E)
Time: 03:14:35
(UTC+02:00)

Gurwin Techsat 1B - Pass Details

Date: 17 March 2026
Orbit: 809 x 812 km, 99.0° (Epoch: 14 April)

Event Time Altitude Azimuth Distance (km) Brightness Sun altitude
Rises 05:56:52 0° 12° (NNE) 3,341 12.1 -6.6°
Reaches altitude 10° 05:59:13 10° 11° (N) 2,405 11.3 -6.2°
Maximum altitude 06:04:29 69° 289° (WNW) 869 8.6 -5.3°
Drops below altitude 10° 06:09:44 10° 207° (SSW) 2,388 10.8 -4.4°
Sets 06:12:04 0° 205° (SSW) 3,315 11.5 -4.0°
